User: anonymous   Login
Location: Unspecified
(0.0000°N, 0.0000°E)
Time: 19:56:22
(UTC+00:00)
Language:

WORLDVIEW-4 - Orbit

View from above orbital plane
View from above orbital plane
View from above satellite
View from above satellite

Ground track
Ground track

The orbit data is extracted from the following two-line orbital elements,

1 41848U 16067A   19237.20673525 -.00000072  00000-0  00000+0 0  9996
2 41848  97.8578 319.8113 0017626  56.5653 303.6343 15.14212837151147
Epoch (UTC): 25 August 2019 04:57:41
Eccentricity: 0.0017626
inclination: 97.8578°
perigee height: 511 km
apogee height: 535 km
right ascension of ascending node: 319.8113°
argument of perigee: 56.5653°
revolutions per day: 15.14212837
mean anomaly at epoch: 303.6343°
orbit number at epoch: 15114

The dashed part of the orbit path shows where the satellite is in the earth's shadow,  

DLR